Wind_Speed
5 4 5 6 7 7 9 10 11 11 10 11 10 7 8 7 6 10 12 14 11 9 14 13 10 14 13 11 12 10 9 7 10 12 9 12 12 11 11 10 9 8 11 19 25 24 24 27 27 27 26 23 23 26 29 30 29 29 29 27 28 29 27 27 27 26 26 26 24 21 18 19 21 21 20 17 14 13 12 13 12 10 10 9 8 8
5 6 7 8 8 10 11 10 11 12 12 10 8 7 8 8 7 11 15 16 11 7 11 11 9 12 12 11 12 9 7 5 8 11 9 13 12 10 11 10 12 14 15 19 19 16 20 23 22 25 27 23 22 25 27 29 28 28 29 29 29 29 28 26 26 26 25 24 23 21 21 23 23 22 22 20 18 17 16 15 13 11 10 10 10 10
5 7 9 10 10 10 11 11 10 11 11 9 6 6 6 7 7 11 16 14 7 6 8 11 9 9 11 12 12 7 9 7 8 10 10 15 14 10 10 12 17 16 15 17 15 14 19 20 16 18 21 19 21 24 27 28 28 27 27 29 30 30 29 27 26 25 22 21 21 22 23 23 23 22 22 20 19 19 18 16 14 11 9 10 11 12
4 8 11 12 10 10 11 11 8 5 6 6 5 5 6 7 6 6 10 8 2 6 6 8 4 4 6 8 8 5 8 8 8 10 9 11 11 10 15 17 17 17 16 16 14 13 17 20 19 19 19 18 22 25 26 28 28 27 28 29 31 31 29 28 25 22 19 20 21 22 22 22 23 21 19 16 15 16 16 16 14 12 10 9 11 13
8 11 11 11 12 12 11 10 7 3 3 4 4 5 5 8 8 5 9 11 7 4 5 7 4 4 3 3 6 6 5 6 7 9 8 10 16 20 21 17 15 17 17 16 13 13 15 16 20 25 25 23 25 26 27 29 29 29 29 30 31 30 29 27 23 20 20 22 24 25 25 25 24 22 19 17 16 16 15 15 14 11 10 11 13 13
12 12 9 12 14 13 12 10 6 6 3 4 3 6 8 11 11 8 10 8 6 5 2 6 4 5 5 3 6 6 4 7 6 8 8 12 20 21 18 15 15 15 15 15 15 14 13 14 19 24 28 27 26 26 27 28 29 30 30 30 30 29 27 25 22 22 24 26 28 31 29 27 25 23 21 20 19 18 16 15 14 12 12 13 14 12
9 12 9 12 14 14 14 10 5 6 2 3 3 5 9 12 9 8 9 6 1 3 2 4 4 3 6 5 8 5 5 8 8 8 7 13 17 15 12 13 14 13 12 13 14 13 13 17 19 20 23 24 24 26 26 25 27 30 30 30 30 28 27 25 24 25 26 27 29 29 28 26 25 22 20 19 18 18 16 15 15 14 12 11 11 10
8 12 11 9 10 9 9 6 4 6 4 4 4 6 11 12 9 7 5 5 3 2 1 2 5 2 4 5 8 6 5 7 8 8 11 15 16 15 13 12 13 14 13 13 13 13 13 17 20 21 23 23 24 26 25 25 28 30 31 31 31 29 28 27 26 26 26 27 26 26 26 25 23 21 20 19 20 19 17 16 15 13 11 10 10 11
9 12 10 7 5 3 4 5 6 7 5 5 6 9 11 10 10 7 5 5 2 3 2 3 5 2 4 6 7 6 5 6 8 11 16 17 15 16 15 13 13 14 14 14 14 13 13 16 19 22 23 21 22 25 24 25 27 28 30 31 31 30 29 28 26 25 24 24 24 24 24 24 23 22 22 21 20 18 16 16 16 14 13 13 13 13
5 9 10 7 5 3 3 5 6 7 6 6 7 9 9 8 9 7 6 4 1 3 3 6 3 2 4 5 4 6 7 7 7 10 15 16 15 15 14 14 13 12 12 13 14 12 12 15 18 20 19 17 18 21 22 23 24 25 27 28 29 29 30 28 26 24 23 23 24 23 23 25 25 23 22 21 19 17 17 18 17 16 16 16 15 13
7 6 7 6 6 6 5 5 7 9 8 7 6 7 7 7 6 5 5 4 3 2 5 6 3 2 3 6 3 4 5 6 7 9 11 12 13 13 12 13 14 12 11 11 11 10 12 15 17 19 19 18 18 19 21 22 22 23 23 24 26 28 29 27 25 23 24 24 22 21 23 25 24 22 22 21 19 18 19 18 17 16 15 14 13 12
11 7 3 2 2 5 6 6 7 10 10 7 5 4 3 5 4 3 1 3 2 4 5 6 5 4 3 5 4 4 3 7 12 12 12 11 10 9 10 12 12 12 12 11 9 9 11 13 15 17 18 18 18 19 20 21 21 21 22 22 25 27 28 27 24 23 24 23 20 21 24 25 23 23 23 22 19 19 19 18 17 16 14 13 13 12
8 5 3 3 1 1 4 5 5 7 7 5 5 4 1 2 2 2 2 3 4 4 4 7 6 5 4 2 3 5 7 7 11 13 14 13 12 9 10 11 11 11 11 10 8 8 9 9 11 13 14 16 19 20 21 21 20 21 21 22 25 26 26 25 23 22 24 22 19 23 25 24 24 24 23 22 20 18 19 20 19 17 16 15 14 14
4 5 4 5 3 3 5 4 3 5 3 4 5 5 3 2 1 2 3 2 3 4 6 8 7 4 1 1 3 7 8 5 8 13 15 15 14 12 11 11 10 10 9 7 6 6 6 7 10 14 15 17 20 23 24 22 20 20 20 21 24 23 23 23 21 21 23 20 19 23 25 24 24 23 21 22 21 19 20 20 19 17 17 17 16 16
3 5 5 6 4 6 8 6 5 4 2 4 4 5 4 4 4 3 2 2 3 3 5 5 5 2 2 2 2 8 10 9 9 10 13 13 13 12 12 12 11 11 8 4 3 3 4 5 10 17 19 20 21 23 24 22 19 20 22 23 24 24 23 22 20 20 21 18 18 23 24 23 22 21 21 21 20 20 19 18 18 19 19 18 17 16
4 5 7 10 8 8 9 7 6 3 2 3 2 2 4 4 5 3 2 4 4 1 3 1 1 1 3 3 2 9 11 11 11 11 10 9 9 11 13 12 11 12 9 5 2 2 4 5 10 15 15 14 18 20 20 20 19 21 24 24 25 26 25 23 21 21 20 17 18 22 22 21 21 20 21 20 19 19 18 17 19 20 20 19 18 18
3 4 5 9 11 10 9 8 6 4 2 2 1 2 6 5 7 5 2 2 3 2 2 1 2 1 2 1 3 10 11 10 11 11 10 8 8 11 12 11 11 12 11 7 6 6 6 8 10 9 8 6 11 16 17 18 18 20 22 22 24 26 26 25 24 22 21 18 18 21 21 20 20 20 21 20 19 19 17 17 20 21 20 19 18 17
4 5 6 3 7 8 8 9 8 7 6 3 1 5 3 2 2 4 2 1 3 1 3 3 5 3 3 0 1 8 10 8 9 10 10 11 12 11 11 12 11 11 11 9 8 7 7 8 8 8 7 6 11 16 18 17 15 17 20 20 22 23 23 25 25 24 23 20 19 21 20 19 19 19 20 20 19 19 18 18 20 20 19 19 18 16
3 3 7 3 0 4 2 7 7 6 5 5 4 5 2 3 1 1 2 2 2 2 3 1 3 2 2 1 2 6 8 7 7 8 10 10 11 11 10 11 12 11 10 8 7 6 7 8 10 10 8 7 12 15 16 15 13 14 18 17 17 18 20 23 24 24 24 22 21 22 21 19 18 19 21 20 19 18 18 18 19 19 18 18 17 17
1 3 3 6 1 2 3 2 5 4 5 5 3 0 2 4 3 1 2 3 3 2 2 2 2 2 2 3 3 6 7 8 8 7 8 9 8 9 9 9 10 10 9 8 8 6 6 7 10 11 11 12 11 9 9 11 11 13 16 16 18 19 19 20 22 23 24 23 23 23 21 18 17 20 21 21 20 18 17 17 18 18 17 17 17 16
2 3 2 6 3 4 2 2 2 1 2 4 4 2 1 2 2 1 1 2 4 2 2 1 1 4 4 3 3 7 7 7 8 7 7 7 8 8 8 8 8 8 8 8 8 6 5 7 9 9 11 12 11 8 6 8 10 12 13 15 19 21 20 19 21 22 23 23 23 24 22 17 16 20 22 20 20 18 17 16 16 16 16 16 16 16
2 1 4 3 3 2 2 2 6 8 7 3 1 2 1 2 4 3 2 3 2 3 2 4 2 4 4 3 2 4 6 6 7 8 7 7 8 7 6 7 7 7 8 7 7 7 5 6 9 11 10 10 11 8 6 6 9 9 11 15 20 23 22 20 20 21 22 23 23 23 21 16 16 19 20 19 19 18 16 15 15 15 15 15 15 15
1 0 1 2 1 2 3 5 9 10 9 8 6 7 5 3 3 4 3 3 1 2 1 2 3 3 3 7 9 7 5 5 5 5 7 6 6 6 4 4 5 5 7 7 7 7 6 8 11 11 9 11 11 8 7 9 9 7 10 15 19 22 21 19 19 20 20 21 21 21 20 16 15 17 17 16 16 15 14 13 13 13 14 14 14 14
3 2 2 2 2 3 4 6 8 10 10 7 6 8 7 7 4 1 4 3 2 1 1 3 1 2 3 7 9 8 9 9 8 7 6 6 6 6 5 5 5 4 3 7 8 7 8 11 10 9 10 11 10 10 10 13 11 9 13 16 17 19 20 20 20 20 20 20 20 19 19 17 15 15 15 15 15 14 13 13 13 13 13 12 13 14
2 1 2 3 3 5 6 5 5 7 6 3 5 8 9 10 9 4 2 4 2 2 4 4 1 2 2 5 8 7 6 7 6 6 6 7 6 6 6 6 6 5 3 3 8 8 8 8 9 10 12 11 11 12 14 14 12 13 16 17 17 14 13 14 15 15 17 17 17 16 15 15 14 13 14 14 13 13 13 14 14 14 13 12 13 15
0 1 2 3 2 1 1 2 1 2 2 1 5 10 12 13 10 4 2 4 2 1 4 5 4 3 3 5 8 7 5 7 6 5 7 8 8 7 7 7 6 7 9 8 7 9 8 8 10 11 13 13 10 9 12 14 16 16 12 10 8 3 2 3 0 2 1 4 10 12 10 11 12 12 15 16 16 15 15 15 14 15 15 12 13 16
2 0 1 3 4 4 4 4 4 3 2 3 6 11 12 11 11 7 4 2 0 1 3 3 7 9 6 5 6 6 7 7 6 7 8 8 9 9 7 7 7 8 10 11 10 11 10 10 10 10 13 15 14 10 9 10 11 11 8 5 2 0 2 4 6 9 9 8 8 8 7 11 13 12 15 18 17 17 17 16 14 14 15 12 11 14
3 1 2 5 3 3 5 5 4 3 3 5 7 10 12 11 12 10 5 3 3 2 3 2 7 10 5 4 6 5 6 7 6 8 8 8 8 7 6 8 10 11 12 12 12 13 14 12 10 10 13 16 17 14 12 13 13 13 14 11 6 5 6 7 9 10 11 11 13 11 8 11 10 9 12 16 16 15 15 14 11 13 14 12 11 12
2 1 2 4 3 3 3 5 4 3 3 5 7 8 10 12 11 9 4 5 4 4 6 6 9 9 4 3 5 6 6 7 7 8 9 9 10 8 9 11 12 13 14 13 12 13 14 13 12 13 15 15 16 15 14 14 13 11 11 10 8 8 7 8 10 11 9 11 15 11 6 6 5 4 7 11 12 11 13 13 11 13 14 12 13 14
1 0 3 1 3 2 5 7 6 5 5 5 7 7 10 12 11 8 6 7 6 8 11 13 15 11 6 6 8 8 7 7 8 9 11 12 12 13 14 13 12 12 12 12 12 12 13 14 16 20 22 22 20 18 15 13 10 8 7 7 7 7 8 10 13 13 9 6 6 5 4 5 7 6 5 7 8 9 13 16 14 13 12 11 12 13
4 0 4 3 1 2 7 8 7 7 6 6 8 7 8 11 9 7 6 7 8 9 10 14 16 9 5 6 9 8 8 10 11 11 11 11 11 14 15 13 12 12 11 11 12 13 13 14 17 21 23 24 26 25 22 17 11 5 5 7 9 9 10 12 13 13 10 6 5 2 2 3 7 10 9 10 14 15 13 14 14 13 11 10 9 9
3 2 2 2 3 2 2 6 8 8 6 6 7 6 6 8 7 5 4 3 3 6 7 9 11 6 2 5 9 9 10 13 13 11 11 10 11 13 14 13 12 12 10 10 11 13 14 14 16 19 21 23 26 27 27 27 23 15 9 7 9 11 13 13 14 13 10 7 6 3 1 2 5 8 7 6 11 13 10 9 11 13 12 12 9 7
0 1 2 3 3 4 6 4 7 7 6 4 3 5 4 5 7 7 6 4 4 4 3 5 6 5 3 7 10 10 11 13 11 9 9 9 10 12 12 11 11 10 10 10 10 11 12 13 16 20 21 22 24 25 27 29 30 29 23 13 9 12 15 15 14 13 10 8 6 5 3 4 4 4 4 4 6 10 11 10 10 12 13 11 9 7
1 4 2 2 3 2 7 7 7 5 4 1 5 5 2 6 9 9 7 5 6 7 6 7 8 7 7 10 10 9 10 10 9 8 9 8 8 9 9 9 9 9 10 10 9 10 12 14 18 21 23 23 23 24 28 30 30 32 32 25 18 17 17 17 17 14 11 9 6 5 6 8 7 5 5 7 8 9 11 11 11 12 12 11 9 8
3 5 2 1 4 1 2 5 5 2 1 3 4 5 7 9 12 14 11 8 8 13 13 12 10 9 10 11 10 9 9 8 8 9 9 8 7 9 9 8 7 8 9 9 9 10 13 16 19 21 23 24 24 26 29 30 28 30 32 31 28 26 24 25 26 24 19 16 12 8 4 5 6 7 6 7 8 9 10 12 13 11 9 8 8 8
4 4 2 1 3 2 1 3 3 3 1 2 5 9 9 6 8 10 10 9 8 10 13 13 11 10 11 12 10 9 9 8 8 8 7 6 6 7 8 6 6 7 8 9 10 13 16 20 21 21 21 23 26 28 28 28 28 29 30 30 30 30 29 30 31 30 28 26 24 19 14 9 7 6 5 6 10 13 12 10 8 6 6 7 7 7
5 4 3 2 2 1 3 2 2 3 2 4 5 6 6 5 5 2 4 5 5 7 11 12 12 11 10 11 10 10 10 9 9 6 4 4 5 6 7 6 7 8 9 11 14 16 18 21 22 22 24 25 26 27 27 26 27 29 30 30 29 28 28 29 29 28 28 28 28 26 22 18 16 14 12 9 3 6 8 7 5 4 5 6 7 7
6 4 4 3 1 1 3 2 1 2 1 2 3 6 5 5 7 4 4 3 2 5 9 11 12 11 10 10 9 8 7 8 8 4 2 2 3 4 7 7 9 12 12 13 17 19 19 20 21 22 23 24 24 24 24 24 25 27 27 27 27 26 25 24 24 23 23 24 25 25 22 19 18 17 17 17 14 9 5 2 4 6 5 4 5 6
8 4 4 5 2 2 3 2 1 2 1 2 5 7 5 5 8 6 4 2 1 4 7 9 10 8 8 8 6 5 6 6 5 4 4 5 4 5 6 6 8 11 11 12 15 17 17 18 19 20 21 23 22 21 21 22 23 24 24 23 23 24 24 21 19 19 17 17 19 19 18 17 16 16 16 16 15 13 11 9 7 4 4 6 6 6
6 3 4 4 2 2 3 2 2 2 0 3 6 7 4 3 6 5 3 1 3 5 6 7 7 6 5 5 4 5 6 6 5 5 6 7 7 6 7 8 9 11 12 16 17 15 16 18 19 19 20 20 20 19 19 20 20 20 19 20 21 22 22 20 17 16 15 13 14 14 13 13 14 14 14 14 14 13 12 11 10 8 6 5 6 8
3 2 3 4 3 3 3 2 2 1 2 4 6 7 5 1 3 3 1 2 3 6 6 6 7 5 5 5 5 5 6 6 7 7 6 6 6 9 13 15 16 16 17 19 20 19 18 19 19 18 18 17 16 16 16 16 18 18 16 17 19 19 18 17 16 16 15 13 14 13 12 12 12 12 12 12 11 10 11 12 12 11 11 10 9 8
3 3 3 3 2 2 3 2 2 1 3 5 5 6 5 2 3 2 2 3 6 8 8 9 8 7 8 8 8 7 8 9 10 9 9 8 8 10 14 16 17 18 18 17 18 19 19 18 17 16 17 16 15 15 14 14 16 17 15 16 19 17 15 15 15 16 15 14 14 14 13 13 13 12 13 13 12 11 10 11 11 12 12 13 13 12
1 1 2 3 2 2 3 3 2 2 3 5 3 4 5 2 2 3 6 7 8 8 9 9 8 7 8 9 9 9 10 10 10 10 9 9 9 10 14 16 15 15 16 17 16 16 16 16 14 13 15 15 14 14 14 14 16 16 15 17 18 16 14 15 15 16 15 15 15 14 14 14 15 15 16 16 16 15 14 12 12 11 12 13 15 16
3 1 2 1 2 1 3 2 2 3 4 6 5 3 2 1 2 4 7 7 6 7 7 7 7 8 9 10 10 10 10 9 9 9 8 8 8 10 13 15 14 13 15 17 16 14 14 14 12 12 14 15 14 13 13 14 14 13 14 16 16 15 15 16 17 17 16 16 15 15 16 16 16 17 18 18 18 18 17 16 15 14 13 14 15 16
3 5 5 3 3 3 4 4 4 5 5 6 7 5 5 7 8 8 9 8 7 7 6 6 7 8 9 10 9 8 8 8 7 7 7 7 7 9 11 12 11 11 13 14 14 13 13 12 12 13 14 14 14 13 14 14 14 14 15 15 16 16 17 17 18 18 18 18 17 17 18 18 18 18 19 19 19 20 20 19 18 18 17 16 17 18
6 8 7 4 5 7 7 6 7 7 7 7 8 7 8 9 9 9 10 9 8 8 7 7 7 7 7 8 8 7 6 6 6 7 7 6 7 9 11 10 10 11 13 13 13 12 12 12 13 15 16 16 17 16 16 17 17 18 18 18 18 18 18 18 19 20 19 20 20 19 20 20 21 21 21 20 20 21 21 20 21 21 20 19 19 18
4 6 5 4 4 4 4 5 6 6 7 7 8 9 9 10 8 8 8 8 8 9 8 8 8 7 7 8 8 7 6 6 6 6 6 6 6 8 11 11 12 12 12 11 11 12 13 15 17 18 18 18 18 17 17 18 18 18 18 18 19 20 19 20 21 21 20 20 20 20 21 22 22 22 21 20 20 20 20 20 21 22 22 21 19 15
3 4 5 4 4 4 4 5 6 7 7 7 8 7 7 8 8 8 8 8 8 9 9 9 9 7 6 6 7 7 7 7 6 5 5 5 6 9 11 12 11 10 11 12 12 13 15 17 18 17 17 17 16 16 16 16 17 18 18 18 19 19 18 19 20 20 20 20 20 21 22 23 23 23 23 22 21 21 20 20 21 21 21 21 20 16
4 5 4 5 6 5 5 6 6 7 7 8 8 7 6 6 7 8 8 8 9 8 8 9 10 9 8 8 8 7 7 6 7 7 6 6 8 11 12 12 11 12 13 15 14 14 15 15 15 14 14 14 13 14 14 15 15 16 17 17 17 17 17 17 18 18 19 19 19 20 22 22 21 22 23 23 22 21 20 19 20 20 19 18 19 20
5 5 4 5 6 4 3 5 6 5 5 5 6 7 6 6 7 7 7 8 8 8 7 7 9 10 11 11 11 9 7 6 8 9 8 8 11 12 11 11 13 13 13 14 13 13 12 11 10 9 9 9 10 12 13 14 15 15 15 15 15 16 16 17 17 17 17 17 18 19 21 21 21 20 20 21 21 21 21 19 18 18 18 17 17 18
4 4 4 5 5 4 4 5 5 5 5 5 6 6 5 6 6 6 7 7 7 8 8 8 7 7 7 9 12 12 9 7 8 10 10 11 11 10 9 10 12 12 11 11 11 10 8 6 5 7 8 9 10 10 11 12 12 12 13 14 15 16 16 15 15 15 16 16 16 17 18 18 19 19 20 20 20 20 21 22 21 19 18 18 18 18
Wind_Direction
171 200 227 220 224 225 225 224 231 248 251 254 264 271 270 268 261 255 250 239 223 193 199 197 176 197 214 230 246 257 271 261 183 169 145 144 156 154 157 159 137 109 81 83 91 97 103 113 124 134 144 154 150 148 152 151 151 151 152 153 152 154 154 150 148 147 148 148 148 150 147 142 142 141 138 129 121 121 117 118 127 136 140 145 146 148
177 205 228 223 224 229 233 228 225 240 254 263 271 281 286 283 279 281 275 250 219 176 188 183 164 193 205 217 235 232 236 236 157 160 156 145 154 158 154 137 102 87 80 83 88 98 109 117 130 138 145 153 150 147 152 153 153 152 154 154 152 153 153 150 149 147 147 148 149 148 142 137 136 138 136 129 133 140 134 127 126 126 129 140 146 143
199 228 229 224 228 230 237 239 228 235 247 254 263 272 277 280 291 293 287 267 207 150 178 179 173 200 201 209 228 202 179 192 164 168 163 150 161 166 142 110 94 97 102 108 115 121 119 121 130 138 142 148 147 149 153 155 155 155 155 155 153 154 153 151 150 150 150 151 150 145 143 141 135 133 135 132 132 137 136 132 131 136 138 137 138 136
208 233 222 221 232 234 242 242 225 227 252 242 235 255 267 272 288 297 303 314 84 108 136 154 169 236 209 210 238 222 184 189 172 164 152 143 145 126 110 105 109 117 120 124 128 127 125 131 141 142 142 149 154 157 157 156 156 158 158 157 156 158 155 152 152 153 151 151 150 145 144 143 136 133 135 132 131 133 133 135 140 149 147 137 141 141
235 237 212 213 231 234 245 246 217 183 260 262 227 240 266 273 283 300 314 332 4 34 82 95 41 324 279 241 267 267 200 186 163 141 121 98 94 98 103 108 116 121 125 126 125 129 133 141 149 146 148 161 167 166 162 159 160 161 161 160 160 159 155 154 154 148 143 146 144 137 135 134 131 131 134 134 136 136 135 139 139 138 135 129 132 136
240 242 208 205 223 228 238 245 214 176 235 294 247 239 255 265 279 299 307 328 0 339 2 86 64 303 300 283 269 274 192 180 151 132 128 100 96 105 112 114 117 119 125 126 129 139 141 146 154 153 158 169 173 171 166 163 163 163 162 162 160 156 154 157 154 145 142 144 141 137 135 133 132 133 139 143 144 140 138 141 138 131 132 128 124 122
235 244 225 205 211 219 226 233 201 156 194 273 247 251 263 264 268 278 295 317 350 247 255 104 129 254 302 294 264 251 170 164 147 132 118 104 107 116 120 124 127 126 125 125 135 147 147 152 160 162 166 172 173 172 168 164 163 163 163 163 160 156 157 158 153 148 147 146 144 144 141 139 137 138 145 149 147 144 142 143 139 133 132 130 130 126
212 232 244 220 207 210 208 216 197 159 185 237 228 251 266 269 260 243 254 277 250 199 203 125 136 176 289 270 259 240 169 157 156 130 94 100 116 120 123 132 132 130 132 133 144 155 158 160 163 166 171 174 173 170 168 165 163 164 164 163 161 159 161 161 156 152 152 151 149 146 143 140 140 140 144 147 145 144 146 146 141 138 137 135 138 134
200 214 234 228 222 215 179 188 196 183 206 235 221 236 256 267 265 247 218 245 256 72 328 249 148 142 270 266 273 255 206 181 169 131 107 115 125 125 131 136 130 134 139 142 152 163 165 163 163 167 171 173 169 165 165 165 165 166 165 164 164 164 164 163 159 154 154 153 147 142 141 140 139 138 139 142 143 143 147 150 146 145 142 136 134 135
212 207 207 202 211 223 206 202 204 200 211 227 225 240 261 268 270 260 219 220 149 106 264 255 163 147 272 280 279 245 213 192 170 127 118 126 128 130 137 130 127 135 136 143 158 163 156 157 161 163 164 163 159 159 161 162 163 165 166 166 165 165 165 163 158 153 151 149 145 143 145 142 139 139 140 141 143 147 152 151 145 141 136 133 130 125
255 231 196 194 196 192 207 219 222 223 217 218 222 237 260 267 274 263 208 156 108 204 240 242 215 167 263 284 266 235 217 173 140 116 118 121 121 130 131 124 132 138 137 152 159 140 128 143 157 160 158 153 149 154 156 157 161 164 166 168 165 164 164 160 156 153 151 149 149 150 150 147 144 145 146 146 147 151 151 144 139 139 138 138 137 124
249 244 206 227 208 170 196 225 238 232 217 211 214 209 257 286 311 334 319 132 155 250 229 211 217 184 206 281 297 325 8 118 125 123 126 121 116 124 121 122 132 134 141 155 148 124 121 139 160 162 153 146 146 150 153 156 162 166 167 168 166 165 163 158 156 156 157 157 154 153 153 151 151 153 153 152 152 152 150 145 141 141 141 141 143 137
245 242 203 212 267 138 197 223 255 247 215 191 197 184 191 309 326 333 287 196 203 246 219 188 204 208 195 260 331 11 38 99 123 125 130 126 120 120 113 114 125 133 143 150 141 137 139 146 157 150 141 144 149 152 155 159 165 169 169 168 167 166 163 160 159 162 165 162 153 153 155 154 156 158 158 158 158 156 156 155 149 143 141 142 142 138
264 270 236 207 193 186 207 211 227 241 212 173 174 159 161 159 157 265 264 224 216 253 238 204 204 229 229 19 27 51 56 71 99 114 126 128 129 132 115 105 116 126 128 135 144 145 140 142 141 138 149 162 159 158 162 163 166 170 169 169 170 168 164 163 163 167 169 161 150 153 156 156 159 159 158 160 161 160 161 158 153 149 145 143 143 140
229 252 240 229 199 173 198 219 217 221 212 215 201 158 164 160 158 210 230 202 218 265 272 224 197 204 180 196 122 80 68 55 63 94 117 124 132 131 115 105 107 111 113 125 145 105 76 111 139 150 165 174 165 160 164 164 163 169 172 172 173 169 168 170 169 170 168 159 154 156 156 157 159 159 160 162 162 162 161 158 156 153 148 145 145 144
229 234 211 215 211 177 185 212 225 260 309 271 245 177 207 192 151 159 214 195 173 41 324 274 180 188 171 193 112 84 70 57 59 73 95 112 125 118 112 113 112 118 126 126 125 76 74 132 165 164 165 175 167 157 160 165 168 174 175 175 175 173 173 175 174 173 168 159 158 160 158 158 159 160 162 164 164 163 161 162 161 155 149 147 146 144
225 260 239 211 209 196 185 192 198 202 231 288 332 213 229 201 145 135 246 261 91 80 286 101 101 104 99 26 48 78 69 58 60 62 67 74 86 97 107 116 120 131 140 149 169 170 153 162 173 155 129 143 158 151 155 169 177 181 178 176 179 178 177 178 178 176 171 162 160 162 160 160 162 165 167 166 165 163 162 164 160 154 150 150 149 146
206 260 288 231 205 216 194 186 203 195 166 141 202 219 252 358 87 114 142 324 61 115 257 147 143 156 117 146 56 81 77 69 69 69 66 64 73 84 98 115 126 138 146 160 172 166 162 159 141 126 122 135 152 154 161 170 178 183 182 182 184 182 178 178 179 178 176 169 163 163 163 164 167 170 170 165 162 161 163 162 157 153 153 152 150 146
196 241 294 330 135 276 228 178 212 230 183 170 203 205 147 57 3 38 113 189 140 158 285 346 126 117 103 196 166 106 104 99 87 81 79 75 83 95 106 121 131 137 143 154 157 155 172 160 129 128 153 173 162 156 160 166 172 180 184 187 188 185 182 181 181 180 179 175 167 164 165 168 174 176 171 165 162 161 161 158 155 154 154 152 149 146
172 149 286 310 328 356 342 198 208 247 229 223 252 5 102 131 161 166 149 164 143 162 277 343 22 328 266 248 192 145 132 122 113 98 89 90 98 108 119 128 133 140 143 147 153 159 166 146 128 142 174 186 169 141 140 161 173 180 184 187 186 185 183 183 185 184 180 176 171 169 169 170 174 174 169 163 163 163 158 155 155 156 154 151 151 149
340 129 198 292 333 70 9 266 194 12 315 254 255 225 137 117 124 123 189 172 136 140 200 120 0 275 259 251 179 145 131 127 128 117 104 107 111 114 125 131 135 141 137 140 150 147 134 118 125 162 184 175 161 146 142 168 184 184 184 187 185 184 183 183 185 184 179 175 172 171 172 170 167 168 166 164 165 162 155 151 153 156 154 153 154 153
355 172 180 257 339 86 233 321 42 37 24 25 320 281 184 130 113 96 315 272 132 114 177 157 159 269 287 335 22 109 116 121 124 120 114 110 111 115 124 127 135 139 134 141 142 130 131 128 142 175 177 143 142 147 135 169 199 201 195 190 185 185 185 183 183 181 178 176 175 173 172 168 163 163 163 164 165 162 158 153 150 152 155 155 157 155
49 10 165 208 260 213 259 356 40 42 31 45 40 6 2 31 100 138 198 269 352 34 335 100 115 257 319 24 23 15 30 48 46 72 87 84 89 94 91 91 103 117 129 144 144 135 143 139 145 162 138 110 122 121 126 175 190 193 201 198 189 186 186 184 182 180 177 177 177 175 173 168 162 162 164 165 164 158 153 154 154 154 156 157 158 157
16 11 0 333 309 320 338 4 41 48 36 39 30 13 15 15 3 191 175 163 157 185 74 61 68 274 345 41 48 20 13 30 21 19 54 68 74 78 74 68 64 59 112 153 149 139 142 137 131 123 106 115 140 141 164 189 181 177 200 203 192 186 186 186 185 182 180 181 179 176 176 171 162 163 166 164 161 155 150 156 162 161 161 163 163 162
344 356 33 32 0 347 348 352 15 30 33 37 10 13 24 21 9 358 64 79 107 184 133 120 194 270 350 56 76 61 36 45 30 7 34 56 62 64 61 52 40 18 14 126 128 118 126 126 108 108 124 146 164 169 182 189 180 187 202 199 191 187 184 186 190 191 189 183 172 165 168 170 165 157 154 154 154 156 160 166 169 172 170 169 171 170
170 229 90 86 101 153 267 261 259 336 358 32 18 23 27 20 16 20 80 81 74 216 115 124 153 139 89 80 86 87 71 55 38 27 37 41 44 49 55 54 40 23 15 22 62 81 85 82 79 96 122 131 131 150 170 173 176 187 196 189 184 199 201 185 342 335 208 137 130 127 133 156 162 150 151 159 160 165 178 184 187 185 178 174 174 173
126 230 156 148 162 176 190 197 185 169 97 64 39 32 31 25 25 42 76 85 109 108 71 112 141 125 109 107 110 107 88 69 53 55 51 39 35 36 46 57 52 42 31 19 26 43 53 60 66 78 97 102 95 94 102 106 125 141 134 120 117 12 185 146 75 52 50 76 124 141 151 168 171 162 163 168 166 171 181 187 195 191 177 173 175 173
87 336 217 178 188 206 177 165 166 155 96 76 63 45 42 40 38 49 58 307 276 130 82 71 123 119 122 136 124 100 83 80 74 71 68 58 49 43 49 58 54 51 49 41 32 31 36 42 42 48 70 87 88 85 80 67 68 90 101 102 114 143 152 135 109 89 85 121 157 179 189 180 171 157 165 173 174 179 179 173 182 188 179 178 187 188
103 236 231 168 195 250 177 133 126 113 78 73 78 67 61 56 47 49 32 306 283 145 135 124 105 95 84 77 71 61 67 78 81 81 80 72 61 61 68 68 63 59 57 54 49 44 43 43 39 39 50 69 80 81 80 69 61 74 92 98 111 130 127 109 104 98 98 136 158 170 190 195 180 151 171 181 175 175 179 172 175 189 193 198 201 201
70 203 310 246 183 187 84 84 85 86 85 84 78 72 76 71 58 49 18 350 32 97 119 113 95 72 44 40 48 60 72 75 72 72 74 74 70 71 76 75 71 67 64 61 59 54 50 49 46 43 42 43 46 51 60 70 78 93 106 98 95 103 97 91 99 104 103 114 131 151 192 201 182 163 164 182 177 176 186 187 187 191 194 194 192 193
16 297 295 317 78 99 93 90 73 67 76 85 75 66 77 77 57 40 21 5 40 78 96 98 90 71 39 48 53 58 70 72 66 62 66 72 77 81 83 82 78 73 69 66 64 59 53 49 46 43 42 40 37 36 37 41 52 84 114 97 88 87 85 81 88 98 105 96 74 78 218 180 153 149 148 173 188 190 191 195 199 200 197 188 176 173
359 278 283 19 46 27 98 110 91 73 58 57 57 36 42 73 73 57 49 25 65 88 83 82 87 84 72 76 63 51 61 70 66 62 65 67 69 77 81 81 79 76 71 67 63 60 55 50 46 41 38 38 37 34 32 33 35 32 32 70 92 91 91 88 84 85 92 96 96 106 193 104 131 147 147 166 191 196 201 211 212 211 208 199 189 181
304 72 15 39 62 351 345 51 93 86 57 39 6 323 345 83 100 85 71 72 93 99 81 80 98 108 107 90 77 62 63 69 63 57 66 70 70 74 78 80 80 75 69 65 63 63 60 55 53 48 42 39 38 35 34 36 38 37 36 45 67 77 86 89 85 85 81 76 99 138 145 119 130 160 166 169 190 204 213 223 229 229 220 208 207 212
68 95 69 41 93 334 335 22 56 59 59 282 269 291 16 94 92 78 67 70 94 101 92 87 95 97 89 85 82 76 69 66 60 54 56 63 70 70 68 70 76 78 72 66 62 64 62 59 56 52 46 41 39 38 38 40 43 45 48 53 54 56 65 67 67 79 88 78 88 136 150 146 146 143 158 173 181 197 212 225 240 240 228 219 224 226
86 92 104 81 102 156 327 45 59 68 135 240 290 10 55 84 83 74 60 48 78 101 99 92 91 93 94 95 95 92 82 71 66 65 59 59 68 73 68 59 61 71 71 67 63 61 59 58 55 50 45 41 39 38 39 39 42 46 50 52 54 52 53 55 55 58 63 60 56 66 101 139 137 128 144 171 179 184 196 213 226 229 222 222 232 236
118 106 108 76 73 114 126 85 117 154 159 326 7 25 30 47 61 65 58 36 49 98 106 105 108 111 111 113 112 110 108 97 76 65 56 57 69 79 81 73 66 71 74 74 73 69 65 63 60 54 47 43 41 39 37 37 40 44 46 46 47 47 47 50 48 45 44 42 40 47 60 67 75 97 133 176 196 201 199 201 211 220 224 230 237 245
119 120 104 63 24 86 120 81 84 122 44 1 11 7 3 8 354 15 88 50 34 94 110 114 122 128 127 128 133 136 128 103 76 54 33 44 64 76 79 75 71 74 78 80 78 74 70 67 62 56 50 46 43 40 36 36 37 41 43 42 41 40 41 44 42 39 39 35 31 34 42 45 47 50 53 59 99 209 213 212 222 231 232 239 244 247
100 106 112 112 38 47 99 89 65 107 80 354 321 312 331 1 343 344 93 78 35 106 117 123 132 138 139 143 155 159 129 86 74 76 69 72 86 86 81 74 68 68 70 74 75 70 66 62 57 52 47 45 44 40 35 34 36 38 38 37 37 37 36 36 35 33 33 31 28 27 26 25 27 31 34 36 36 39 42 2 277 258 251 257 267 269
76 66 85 98 88 68 96 111 100 94 127 265 293 304 325 351 339 352 75 100 159 132 122 127 133 137 143 151 158 143 107 89 99 130 151 163 161 135 121 108 90 81 70 66 71 73 70 63 57 52 46 42 41 38 34 33 34 35 34 31 32 34 33 30 26 22 21 22 22 22 21 18 14 13 15 13 10 13 18 19 14 338 280 260 260 272
66 40 67 79 93 113 104 95 82 81 242 275 298 308 316 351 357 20 84 170 170 139 124 125 128 128 136 146 132 100 102 120 141 149 155 163 158 131 114 103 92 83 63 50 53 66 73 67 59 54 48 43 39 34 31 31 31 31 30 28 28 28 26 23 18 12 11 12 12 9 9 13 9 4 4 0 353 348 345 346 355 357 343 311 281 270
43 15 62 81 94 104 96 92 102 101 288 286 297 300 291 315 38 51 163 215 132 117 106 102 107 103 100 103 93 87 98 112 122 124 124 123 108 85 76 73 73 70 60 49 46 53 63 64 59 54 50 47 43 36 33 32 31 29 26 25 24 19 13 11 9 6 3 1 1 359 355 358 358 353 351 348 340 333 327 324 325 328 331 331 326 314
7 0 27 43 46 69 86 92 101 96 288 271 271 302 328 62 99 90 104 88 86 94 94 90 91 88 85 87 88 91 94 93 95 96 88 79 75 69 64 63 62 60 58 55 48 45 52 58 55 51 50 51 48 41 37 34 29 27 25 22 19 12 4 0 359 358 354 350 351 351 349 347 348 346 345 346 342 333 323 319 317 315 318 320 322 326
353 32 43 25 14 61 80 76 88 85 328 316 313 346 3 49 133 114 97 91 83 87 89 83 80 78 82 85 82 82 84 83 82 83 79 75 73 70 65 61 56 52 57 59 49 40 46 52 48 47 51 50 46 40 36 32 27 24 22 17 12 6 1 359 355 353 352 350 347 347 345 343 341 339 339 342 345 343 338 333 327 321 321 320 318 317
352 47 90 13 338 61 87 72 77 83 18 11 47 77 37 38 92 92 95 89 70 69 77 78 74 73 78 82 79 74 74 73 75 76 73 70 69 67 65 59 52 51 60 62 51 39 40 42 41 50 53 48 43 39 33 28 24 18 15 10 4 360 359 358 356 355 355 354 352 352 351 347 343 342 341 341 342 344 344 343 341 336 331 326 323 322
43 90 99 64 38 71 99 107 98 89 62 47 62 73 59 50 56 73 85 82 67 63 66 73 75 73 78 84 82 78 74 72 73 77 76 72 69 72 72 64 54 54 60 61 52 39 34 33 37 48 50 41 39 38 30 26 24 19 16 15 12 8 5 3 1 1 359 357 354 351 349 348 346 344 343 341 342 344 344 344 345 344 342 340 336 329
106 104 96 84 83 78 77 85 89 84 77 71 69 63 55 52 54 68 77 76 73 71 67 66 65 65 74 82 82 84 88 84 79 82 85 83 77 79 81 76 65 60 60 59 48 33 27 29 33 40 41 35 33 32 27 26 27 24 20 19 16 12 8 6 5 5 3 2 359 353 349 347 346 344 343 341 339 338 338 338 340 339 339 342 343 340
93 94 87 102 120 105 85 89 94 93 91 87 79 70 63 60 56 62 72 77 78 77 73 69 62 55 61 76 82 80 79 82 86 92 98 97 91 88 83 73 64 61 59 57 48 37 35 38 37 35 34 30 26 25 24 22 22 21 16 13 10 7 4 3 3 1 359 359 1 2 0 358 356 354 353 351 349 346 343 340 340 341 343 344 341 339
36 69 77 91 97 93 103 113 107 96 90 85 84 83 81 80 77 74 78 81 79 76 75 73 70 61 56 70 84 82 67 56 55 70 90 93 84 83 81 74 67 63 58 56 52 45 41 40 36 31 29 28 24 22 20 17 15 14 12 10 7 3 1 1 0 358 355 354 355 358 359 359 359 359 357 354 354 355 357 357 355 354 357 359 355 344
35 58 77 101 96 92 110 123 116 103 92 87 90 96 97 100 100 96 92 89 84 84 82 77 75 74 66 64 75 82 76 53 34 45 77 88 74 75 78 74 68 62 58 58 56 49 42 39 35 31 29 25 19 14 14 14 13 11 10 9 7 3 1 0 357 355 354 353 351 353 355 355 356 356 355 355 351 347 348 353 357 357 359 4 7 5
47 59 72 101 104 107 130 132 126 117 107 105 114 123 128 127 122 118 116 113 109 107 103 93 86 80 74 76 80 81 79 60 36 40 61 75 71 72 71 67 68 65 60 59 57 52 47 43 38 37 32 22 18 16 14 13 12 7 4 3 1 359 358 357 356 354 353 351 349 348 350 352 353 352 351 352 351 346 341 336 336 342 349 350 350 356
67 84 89 102 109 123 137 134 126 117 117 127 130 128 127 119 108 97 94 103 114 117 112 111 111 100 87 91 95 92 92 80 50 48 65 72 72 71 65 64 74 77 69 66 63 59 59 59 48 44 41 33 28 22 16 12 10 4 358 355 354 353 354 356 356 353 349 348 348 347 346 346 346 346 347 347 347 348 346 339 328 323 329 335 334 337
Height
739 750 754 753 752 748 743 741 740 739 737 737 737 739 739 738 735 724 714 704 700 713 718 716 722 723 720 716 710 707 707 709 712 713 717 726 729 731 735 737 740 748 755 760 764 770 773 773 773 775 781 788 789 788 788 787 788 788 788 789 790 791 793 794 796 798 800 802 804 805 807 808 809 811 812 814 815 815 816 818 820 822 823 824 825 826
740 753 753 745 743 739 737 736 735 736 736 736 739 741 738 736 731 719 711 700 693 708 716 712 719 722 718 715 708 707 710 710 710 713 718 725 729 731 733 739 748 757 761 765 770 777 778 776 777 777 779 787 789 788 788 787 788 789 789 789 790 791 793 795 796 798 799 801 802 804 805 806 808 810 812 814 816 817 818 820 821 823 824 825 826 827
749 752 744 736 734 733 733 732 733 735 735 737 738 740 741 735 729 721 707 695 690 704 714 712 716 720 715 711 708 707 708 708 708 710 715 722 727 729 734 744 755 761 762 764 769 775 776 776 781 783 784 788 790 788 787 786 787 788 789 790 791 792 794 795 797 798 799 800 802 803 805 806 808 810 812 815 817 818 819 821 822 824 825 826 826 827
755 745 733 729 730 731 733 731 732 733 734 737 737 741 742 732 732 733 716 699 692 699 710 713 716 718 714 710 708 707 705 704 705 707 710 717 725 731 740 749 754 757 761 764 767 771 774 775 779 783 786 788 788 786 785 785 786 788 790 791 791 793 794 796 797 798 799 800 801 803 805 806 808 810 812 815 817 818 819 821 823 824 825 826 826 827
745 730 723 726 728 729 733 731 731 733 735 734 732 736 738 730 731 734 724 711 701 699 704 712 725 724 715 715 712 706 706 705 705 708 710 719 732 740 747 752 752 753 757 761 767 771 773 776 776 777 780 784 784 784 784 784 785 787 790 791 792 794 796 797 798 799 799 799 801 803 805 808 809 811 813 814 816 818 819 821 823 824 825 825 826 828
734 720 718 726 727 726 730 732 729 730 736 736 730 728 728 726 728 729 726 724 725 722 709 712 739 741 719 717 717 709 710 710 708 710 712 726 742 746 749 753 752 753 754 757 764 769 771 775 776 774 774 778 781 782 784 784 785 787 789 791 793 795 796 798 799 800 800 800 801 802 804 807 809 811 813 814 816 818 820 821 822 823 824 825 826 828
725 716 715 721 724 725 727 729 724 723 736 741 730 722 721 721 725 729 727 732 741 737 716 712 739 749 730 720 718 713 714 714 711 713 716 731 746 747 748 752 750 751 754 757 763 767 769 772 773 774 775 777 780 782 784 785 786 787 789 791 793 795 796 798 799 800 801 801 802 803 805 807 809 811 813 815 817 818 820 821 822 823 825 826 827 828
716 715 715 715 718 723 726 727 720 719 735 740 724 719 722 720 723 726 726 732 735 729 722 717 727 746 744 728 716 712 717 719 715 719 730 740 747 748 750 751 750 751 754 758 763 766 767 769 770 772 775 777 779 781 783 785 786 787 788 790 792 794 796 798 799 800 801 802 802 804 805 808 810 811 814 816 817 819 820 821 823 824 825 826 827 828
709 714 716 712 716 721 721 720 715 717 729 729 717 716 720 718 719 718 722 729 726 728 739 729 723 746 751 729 715 714 720 725 721 727 741 745 745 747 750 751 751 752 753 756 761 764 766 768 770 771 774 777 780 782 783 784 786 787 788 790 791 793 795 797 798 800 801 802 803 805 806 808 810 812 814 816 818 820 821 822 823 824 825 826 827 828
706 706 706 708 715 717 715 711 709 715 722 717 712 715 716 716 716 716 721 726 726 738 749 735 726 747 752 730 720 721 721 725 725 729 739 741 741 743 745 749 752 753 755 756 757 762 766 768 770 772 775 778 782 784 784 784 786 787 788 790 792 793 795 797 798 800 801 803 804 805 807 809 810 813 815 817 819 820 821 822 823 824 825 826 827 828
703 698 697 702 707 708 707 707 707 710 712 710 713 717 719 719 716 718 719 720 735 750 746 732 725 740 752 736 721 722 717 715 723 733 739 740 741 741 742 748 751 753 754 755 757 762 767 770 771 773 776 779 783 784 784 784 785 786 788 790 792 793 795 797 798 799 800 802 804 805 806 808 810 812 815 817 818 820 821 822 823 823 825 826 827 828
703 702 701 698 698 700 705 708 706 704 704 709 715 719 729 730 724 727 725 725 749 760 741 726 723 734 752 743 727 723 714 709 720 732 738 741 742 741 742 746 750 752 753 754 759 764 768 771 772 774 778 781 783 783 783 784 784 786 788 790 792 793 795 796 797 799 800 802 803 804 805 807 809 812 814 816 818 819 820 821 822 823 825 826 827 828
708 706 702 698 696 697 707 714 712 706 705 712 717 722 739 747 744 749 746 742 754 752 732 722 725 737 749 743 732 727 719 715 717 723 732 738 739 740 743 747 750 753 754 755 760 764 767 770 773 777 780 782 781 780 781 782 783 785 787 790 792 793 795 796 797 798 800 801 801 802 803 806 808 811 813 815 817 818 819 820 821 822 824 826 827 828
721 712 702 703 702 697 705 717 721 716 710 715 721 727 743 755 763 768 758 751 753 744 727 719 726 743 749 740 732 727 723 720 717 721 728 732 735 739 744 750 754 756 757 759 761 764 768 772 774 777 779 779 778 776 777 780 782 785 788 790 793 794 795 796 798 799 799 800 800 801 803 805 807 810 812 814 816 817 819 819 820 821 823 825 827 828
734 730 712 708 706 699 701 709 713 712 710 712 711 717 733 743 755 765 759 755 755 745 731 725 734 750 751 741 730 725 724 722 722 726 729 732 735 738 745 753 758 761 763 763 764 767 772 775 775 774 774 776 775 774 776 779 782 785 787 789 792 793 795 796 798 799 799 800 800 801 803 805 807 810 812 814 815 816 817 818 819 821 822 825 827 828
731 728 706 697 697 695 700 700 699 707 717 713 705 715 728 727 731 748 752 748 747 747 741 738 744 745 739 733 725 725 728 727 729 731 732 736 737 739 749 756 760 765 767 768 769 771 774 775 776 774 775 778 777 775 777 780 783 784 786 789 791 792 794 795 797 798 799 800 801 802 803 805 807 809 811 813 815 816 817 818 819 820 822 825 827 828
727 721 698 693 695 691 695 696 694 706 719 717 715 721 719 710 715 736 750 742 742 754 750 744 749 744 738 737 730 731 737 736 736 738 738 741 740 743 752 758 762 765 766 767 768 769 770 773 776 776 778 781 779 777 778 781 783 785 787 789 790 790 792 793 795 796 798 799 800 802 803 805 807 809 811 812 814 816 817 818 819 820 823 825 827 828
720 722 702 694 701 693 687 692 692 695 704 715 722 716 707 708 713 728 749 751 752 762 752 744 752 753 752 751 739 738 745 744 743 744 744 746 747 751 757 760 764 765 765 766 766 767 769 772 776 777 779 780 778 776 777 781 784 787 789 789 790 791 791 792 794 795 797 798 799 801 803 805 807 809 811 813 814 816 817 818 819 821 823 825 827 828
710 725 711 693 700 698 686 694 703 696 694 703 708 701 707 727 732 734 747 755 759 765 755 749 754 757 759 754 745 746 750 749 749 748 749 751 754 758 761 763 765 766 768 769 768 769 770 772 775 776 777 778 777 777 778 781 785 787 789 789 791 792 792 792 793 794 795 797 798 800 802 805 808 809 811 813 815 817 818 819 819 821 823 825 827 828
705 724 723 699 694 699 697 702 713 710 698 696 700 701 708 723 732 734 740 746 755 763 763 763 764 762 760 753 746 749 749 749 750 750 753 756 756 759 761 762 764 765 768 769 769 769 770 773 775 774 775 776 776 779 780 782 785 787 788 789 789 791 792 792 793 793 794 795 797 799 802 805 808 810 812 814 815 817 818 819 820 822 823 825 827 828
708 718 726 711 696 707 718 713 710 715 711 707 710 712 714 717 723 730 735 735 741 757 766 769 772 765 754 746 744 745 747 747 748 750 755 757 757 760 760 761 762 763 766 767 768 769 770 772 774 773 773 775 776 778 780 782 785 786 788 789 789 790 791 791 792 792 794 795 797 799 802 806 808 810 812 814 816 817 818 819 821 822 824 825 827 828
719 720 723 719 711 718 724 710 702 710 714 715 718 717 717 719 724 737 747 736 731 747 757 761 773 769 752 747 746 744 746 747 746 749 755 758 759 762 762 762 762 762 764 766 766 767 769 770 772 772 774 777 779 780 782 785 787 788 789 789 789 789 790 791 792 793 795 796 798 800 803 806 809 811 813 814 816 817 818 820 822 823 825 826 827 829
718 720 721 722 718 717 713 704 703 706 707 714 723 724 722 723 725 737 749 743 737 747 751 754 770 769 756 755 757 754 753 752 751 753 758 762 764 766 767 766 766 765 766 767 767 768 769 770 772 772 773 777 781 783 785 787 788 790 792 792 790 789 791 792 793 795 796 798 799 801 804 807 810 812 813 815 817 818 819 821 823 824 825 826 828 829
716 724 728 727 721 715 708 704 705 707 711 720 728 729 729 732 730 728 734 738 741 750 754 761 773 769 761 761 762 764 764 759 757 758 760 765 767 769 771 770 769 769 768 768 769 769 769 770 771 771 772 776 780 783 784 786 788 790 792 793 791 791 792 793 795 796 798 799 801 803 805 808 811 813 814 816 818 819 820 822 824 825 826 827 828 829
724 732 735 737 738 733 725 721 720 723 728 734 737 735 734 735 730 726 729 735 742 747 750 762 776 775 768 764 764 768 770 766 762 760 761 763 766 769 771 771 772 772 771 770 769 769 770 772 774 776 779 782 785 787 788 790 792 793 793 793 792 793 794 795 797 799 800 801 802 804 807 810 813 814 815 817 819 819 820 822 823 824 825 826 827 828
729 734 735 742 751 750 747 744 742 741 740 740 741 739 740 739 735 733 733 736 744 748 745 756 773 777 771 768 768 770 771 772 770 766 765 766 768 770 772 774 776 777 777 776 773 772 774 776 780 783 785 788 791 794 795 795 795 794 794 794 794 796 797 799 801 803 805 805 806 808 812 813 814 814 815 816 816 817 819 820 821 823 824 825 826 827
730 733 732 738 744 744 745 744 740 739 740 744 745 744 745 746 743 744 744 744 751 753 752 758 766 773 776 772 770 771 771 775 777 774 773 773 773 774 775 776 777 778 782 784 782 782 782 783 785 787 788 790 792 795 796 795 795 794 794 795 796 798 800 801 803 804 807 809 811 813 814 814 814 814 814 815 815 816 817 819 821 823 824 825 826 828
733 736 731 733 735 732 732 734 734 735 737 743 747 749 752 751 750 754 759 761 760 755 760 766 764 769 777 773 772 774 775 778 780 780 781 780 780 780 778 778 779 781 787 791 793 794 792 792 792 793 793 794 795 797 797 796 796 796 797 798 799 800 801 802 803 804 805 807 809 812 813 813 814 814 815 816 815 817 819 821 823 824 825 826 827 828
736 739 732 730 732 728 725 728 733 735 737 741 746 750 753 754 757 761 764 765 757 750 760 770 769 772 777 776 778 780 779 781 781 781 782 783 785 786 785 787 790 794 797 800 802 802 800 799 798 798 798 798 797 798 798 798 798 797 799 801 801 801 803 803 804 806 807 808 808 810 812 813 813 815 818 818 818 819 821 822 823 824 825 826 826 827
733 739 737 733 731 729 728 730 733 735 740 745 748 750 753 757 762 765 763 761 754 753 762 769 774 783 787 785 785 784 783 784 783 783 785 787 792 794 795 799 802 803 804 805 806 805 803 802 800 800 800 799 799 800 800 800 799 797 799 801 802 802 803 804 804 806 808 808 809 810 812 812 813 815 818 821 822 822 821 821 822 823 824 825 825 826
736 744 744 736 734 735 732 733 736 739 744 749 752 753 754 758 764 766 766 764 762 765 769 772 782 795 795 790 789 787 786 787 788 791 793 795 798 798 800 804 805 806 807 808 807 807 805 803 802 802 802 802 802 802 803 803 802 800 801 802 802 803 803 805 805 806 807 807 809 811 813 814 815 816 818 820 822 822 821 822 823 824 825 825 825 826
741 745 743 738 741 745 739 737 742 745 747 753 759 759 758 759 765 769 769 769 770 772 773 776 788 799 797 791 791 791 791 791 795 799 800 801 801 800 802 805 806 807 808 808 807 807 806 806 805 805 805 805 805 804 805 804 803 803 803 803 803 803 804 804 805 806 806 807 808 810 812 814 815 816 818 820 821 822 823 825 825 825 825 825 825 826
743 743 745 745 751 758 754 747 747 750 756 766 770 768 765 763 766 770 771 772 775 776 778 783 791 798 797 792 793 796 796 797 801 804 805 806 805 805 806 807 808 809 809 808 808 807 808 808 808 808 808 808 808 808 808 806 804 804 805 805 804 804 805 806 806 807 807 808 810 811 811 813 815 816 818 819 821 822 822 823 825 826 826 825 825 825
744 743 751 756 758 766 767 758 754 760 772 779 774 767 764 764 767 772 775 775 775 778 784 790 796 799 799 798 801 803 803 804 807 808 809 809 809 809 810 810 810 810 809 809 809 808 809 810 810 810 810 810 811 812 811 809 808 808 807 807 806 806 807 809 810 811 812 813 815 816 816 816 817 819 821 821 822 823 822 823 825 826 825 824 824 825
746 746 754 759 758 765 769 766 769 778 782 779 773 767 765 765 768 773 777 778 777 780 789 797 803 805 804 806 809 810 810 812 813 813 813 813 812 812 814 815 813 811 810 810 810 810 810 810 810 811 811 812 813 813 813 812 812 811 811 810 810 810 811 812 813 815 817 818 819 820 820 820 820 820 821 822 823 824 824 825 826 826 824 823 824 824
742 747 753 757 759 765 768 770 776 781 779 775 774 772 771 771 773 776 783 786 784 785 792 798 805 808 808 809 811 812 813 814 815 816 817 816 815 814 815 816 815 813 812 812 812 811 811 811 812 813 814 813 814 814 815 816 815 814 812 812 812 812 812 813 813 815 817 819 821 822 822 823 823 823 824 825 825 825 825 825 825 824 824 823 824 823
738 745 751 758 765 766 768 775 779 779 780 782 783 783 782 783 783 781 787 794 791 788 791 796 802 806 807 808 810 810 808 809 815 820 820 818 818 816 815 816 814 813 813 813 813 812 813 813 813 814 815 815 814 815 816 817 817 815 814 814 814 814 814 814 815 817 818 819 821 822 823 824 824 825 826 826 827 827 827 825 824 824 823 824 823 823
739 744 747 757 768 768 770 779 784 784 788 792 792 788 785 788 786 781 786 796 794 790 792 794 798 802 803 805 807 805 802 808 818 824 823 821 820 818 817 817 815 815 815 814 814 813 814 815 815 815 816 816 816 817 818 818 818 817 817 818 818 818 818 818 819 820 821 821 822 823 823 824 824 825 825 826 826 827 827 826 825 824 823 823 823 823
744 747 748 756 766 769 771 779 785 790 796 798 795 788 784 788 787 781 789 799 796 791 793 794 796 799 800 800 802 801 804 814 823 824 822 822 821 819 818 818 818 818 818 817 816 816 816 817 817 816 817 817 818 819 819 819 819 819 819 821 821 821 822 822 823 823 824 825 826 826 826 826 825 826 826 826 826 826 826 826 825 825 824 824 823 823
751 752 754 760 767 769 773 783 792 798 799 796 792 788 786 787 784 783 794 801 794 791 794 795 796 799 799 799 800 801 807 816 820 819 819 820 820 820 819 819 819 820 820 820 819 819 819 819 819 819 819 820 820 821 820 820 820 821 823 823 824 824 824 825 826 826 827 828 828 828 828 828 828 827 827 827 826 825 825 825 825 825 825 825 824 823
756 757 758 763 768 770 778 789 798 802 798 793 790 787 784 784 787 794 801 797 790 791 795 795 796 799 799 799 801 803 808 811 813 816 818 819 820 820 820 821 821 822 822 822 822 822 822 822 822 823 824 825 825 824 824 824 824 825 826 826 826 826 827 827 827 827 827 828 828 828 829 828 829 828 828 828 828 827 826 825 824 824 824 823 823 823
766 765 766 770 773 774 781 792 801 804 798 791 788 786 782 786 796 803 801 793 791 794 795 795 797 799 800 802 804 806 809 811 813 816 818 820 821 822 822 822 823 823 824 824 825 825 825 826 826 827 828 828 828 828 828 827 827 827 828 828 828 828 828 828 828 827 827 827 827 827 828 828 828 828 827 827 827 827 827 826 825 824 822 821 821 820
772 773 777 780 779 778 785 795 804 807 800 790 787 789 791 794 799 800 796 795 796 796 797 799 801 801 802 805 807 809 811 814 816 818 819 821 822 823 824 824 825 825 826 827 828 828 828 828 829 829 830 830 830 830 830 830 830 829 829 829 829 829 829 828 828 828 827 827 827 827 827 827 826 826 826 826 825 825 825 824 824 823 822 821 820 818
772 774 781 786 783 784 795 803 806 805 801 793 792 798 801 799 797 796 797 799 800 800 801 804 805 805 806 808 811 813 815 817 819 820 821 823 824 824 825 826 827 828 829 829 830 830 830 831 831 831 831 832 832 832 832 832 831 831 831 831 831 830 829 829 828 828 827 827 827 826 826 826 825 825 824 823 823 823 822 822 822 821 821 820 819 818
776 775 780 787 786 787 796 802 802 800 799 797 798 800 801 798 797 797 800 803 805 806 806 807 809 810 810 811 814 816 818 820 821 822 823 825 826 827 827 828 829 830 830 831 832 832 832 832 832 832 833 833 833 833 833 833 833 832 832 832 831 830 829 828 828 827 827 826 826 825 824 824 823 823 823 822 821 821 821 820 820 819 819 819 818 817
777 775 779 787 790 790 794 798 798 799 801 801 801 802 801 801 802 802 803 806 808 810 810 811 812 813 813 814 817 819 821 822 823 824 826 827 828 829 829 830 831 831 832 832 833 833 833 833 833 833 833 833 833 833 833 833 833 833 833 832 831 830 829 828 828 827 826 826 825 824 824 823 822 822 821 821 821 820 820 820 819 818 818 818 817 817
773 774 780 787 792 796 801 801 799 800 802 802 804 805 805 805 806 806 807 809 810 811 813 814 815 815 816 817 819 821 823 824 824 826 827 828 829 830 831 832 833 833 834 834 834 834 834 834 834 834 833 834 833 833 833 833 833 833 833 832 831 830 830 829 829 828 827 827 826 825 824 823 822 821 821 820 820 819 819 818 818 817 817 817 817 817
775 775 783 790 793 797 802 802 799 800 803 803 806 808 808 809 810 809 810 811 812 813 815 816 817 818 819 820 821 823 824 825 826 828 828 829 831 832 832 834 834 835 835 835 835 835 835 835 835 835 835 835 835 834 834 834 834 834 833 832 832 831 830 830 830 829 828 828 827 826 825 825 824 823 822 821 820 820 819 819 818 817 817 818 818 817
777 780 787 793 796 800 802 801 800 804 806 806 807 809 810 811 811 811 812 813 814 816 817 818 819 820 821 822 824 824 826 828 828 829 830 831 832 833 834 835 836 836 837 837 837 837 837 837 837 837 837 836 836 836 836 835 835 834 834 833 833 832 831 831 831 830 830 829 828 827 826 826 825 824 823 822 821 820 820 820 820 819 818 818 818 818
783 788 792 796 802 806 804 801 802 807 810 810 809 809 810 811 812 813 814 815 816 818 819 820 822 822 823 824 825 827 829 830 831 831 832 833 834 835 836 837 837 838 838 838 839 839 839 839 839 839 839 838 838 837 837 836 836 835 834 834 833 832 832 832 831 831 830 829 829 828 827 826 826 825 824 823 822 821 820 819 819 819 819 818 817 817
788 791 792 795 802 805 801 799 801 806 809 809 808 809 810 811 813 815 816 816 818 820 821 822 824 825 825 826 827 828 830 832 833 834 835 836 837 837 837 838 839 839 840 840 840 841 841 841 841 840 840 840 840 839 839 838 837 837 836 835 834 833 833 832 832 832 831 830 830 829 828 827 827 826 825 824 823 821 820 818 817 817 817 817 817 816